#timestamp,LO_Frequency,Hit,StdDev 
1571727615.5,286046996.7,N
1571727635.3,286046999.4,N
1571727655.2,286047001.1,N
1571727675.0,286047000.5,N
1571727675.9,286047000.5,N
1571727695.7,286047001.2,N
1571727715.6,286046998.3,N
1571727735.4,286046999.5,N
1571727755.3,286046998.7,N
1571727775.1,286046998.6,N
1571727795.8,286047001.1,N
1571727815.7,286047000.6,N
1571727835.5,286047000.5,N
1571727855.4,286046996.9,N
1571727875.2,286046999.1,N
1571727895.0,286046997.1,N
1571727895.9,286046997.1,N
1571727915.8,286046999.5,N
1571727935.6,286046995.4,Y
1571727955.4,286046993.7,P
1571727975.3,286046992.0,P
1571727995.1,286046994.8,N
1571728015.9,286046993.6,N
1571728035.7,286046993.9,N
1571728055.5,286046999.6,N
1571728075.4,286047000.8,N
1571728095.2,286047000.5,N
1571728115.1,286047002.7,N
1571728116.0,286047002.7,N
1571728135.8,286046999.7,N
1571728155.6,286047000.6,N
1571728175.5,286047002.3,N
1571728195.3,286047004.4,N
1571728215.1,286047004.4,N
1571728235.9,286047001.9,N
1571728255.7,286047002.4,N
1571728275.6,286047002.5,N
1571728295.4,286046999.7,N
1571728315.2,286047000.5,N
1571728335.1,286047002.4,N
1571728336.0,286047002.4,N
1571728355.8,286047002.7,N
1571728375.6,286047001.2,N
1571728395.5,286047002.4,N
1571728415.3,286047001.8,N
1571728435.2,286046999.8,N
1571728455.9,286047002.2,N
1571728475.7,286047002.1,N
1571728495.6,286047002.3,N
1571728515.4,286047002.1,N
1571728535.2,286047000.4,N
1571728555.1,286047001.0,N
1571728556.0,286047001.0,N
1571728575.8,286047000.1,N
1571728595.7,286047002.5,N
1571728615.5,286046999.9,N
1571728665.4,286047000.2,E
1571728675.3,286047000.9,N
1571728695.1,286046997.2,P
1571728715.9,286046996.7,N
1571728735.7,286046995.6,N
1571728755.5,286046997.3,N
1571728775.4,286046999.2,N
1571728795.2,286046996.4,N
1571728815.1,286046994.0,Y
1571728816.0,286046994.0,P
1571728835.8,286046997.8,N
1571728855.6,286046995.5,N
1571728875.5,286046996.2,N
1571728895.3,286046997.1,N
1571728915.2,286046997.6,N
1571728935.9,286046996.7,N
1571728955.7,286046995.0,Y
1571728975.6,286046996.2,P
1571728995.4,286046992.2,P
1571729015.2,286046994.5,N
1571729035.1,286046997.6,N
1571729036.0,286046997.6,N
1571729055.8,286046996.9,N
1571729075.7,286046999.5,N
1571729095.5,286046999.4,N
1571729115.3,286046998.3,N
1571729135.2,286046999.3,N
1571729155.0,286046998.6,N
1571729155.9,286046998.6,N
1571729175.8,286047000.3,N
1571729195.6,286047003.9,N
1571729215.4,286047004.4,N
1571729235.3,286047006.0,N
1571729255.1,286047001.3,N
1571729275.8,286047002.2,N
1571729295.7,286047001.9,N
1571729315.5,286047004.2,N
1571729335.4,286047002.9,N
1571729355.2,286047004.2,N
1571729375.0,286047002.6,N
1571729375.9,286047002.6,N
1571729395.8,286047002.2,N
1571729415.6,286047002.6,N
1571729435.4,286046998.2,N
1571729455.3,286046997.0,N
1571729475.1,286046998.8,N
1571729495.9,286046998.3,N
1571729515.7,286046997.1,N
1571729535.5,286046998.8,N
1571729555.4,286046998.5,N
1571729575.2,286046998.6,N
1571729595.0,286047000.4,N
1571729596.0,286047000.4,N
1571729615.8,286047004.0,N
1571729635.6,286047003.9,N
1571729655.5,286047002.1,N
1571729675.3,286046998.2,N
1571729695.1,286047000.4,N
1571729715.9,286047000.4,N
1571729735.7,286047000.2,N
1571729755.6,286047001.9,N
1571729775.4,286047003.8,N
1571729795.2,286047003.6,N
1571729815.1,286047003.9,N
1571729816.0,286047003.9,N
1571729835.8,286047003.0,N
1571729855.6,286047004.0,N
1571729875.5,286047001.9,N
1571729895.3,286047004.2,N
1571729915.2,286047001.6,N
1571729935.9,286046999.0,N
1571729955.7,286046999.5,N
1571729975.6,286046999.7,N
1571729995.4,286047000.4,N
1571730015.3,286046999.7,N
1571730035.1,286047004.4,N
1571730036.0,286047004.4,N
1571730055.8,286047001.9,N
1571730075.7,286047002.6,N
1571730095.5,286047001.2,N
1571730115.3,286046999.1,N
1571730135.2,286046996.8,N
1571730155.0,286046996.7,N
1571730155.9,286046996.7,N
1571730175.8,286046995.6,N
1571730195.6,286046997.7,N
1571730215.4,286047000.8,N
1571730235.3,286047000.4,N
1571730255.1,286047000.6,N
1571730275.9,286047000.0,N
1571730295.7,286047000.8,N
1571730315.5,286046998.4,N
1571730335.4,286046995.1,N
1571730355.2,286046995.8,N
1571730375.0,286046995.5,N
1571730375.9,286046995.5,N
1571730395.8,286046996.0,N
1571730415.6,286046995.2,N
1571730435.5,286046993.8,N
1571730455.3,286046997.2,N
1571730475.1,286046996.7,N
1571730495.9,286046998.6,N
1571730515.7,286046998.8,N
1571730535.5,286046999.4,N
1571730555.4,286046996.5,N
1571730575.2,286047001.1,N
1571730595.1,286047000.5,N
1571730596.0,286047000.5,N
1571730615.8,286047002.3,N
1571730635.6,286047000.2,N
1571730655.5,286047001.1,N
1571730675.3,286046998.2,N
1571730695.1,286047000.8,N
1571730715.9,286047000.5,N
1571730735.7,286046998.4,N
1571730755.6,286046996.9,N
1571730775.4,286047001.2,N
1571730795.2,286047000.2,N
1571730815.1,286047001.9,N
1571730816.0,286047001.9,N
1571730835.8,286046999.9,N
1571730855.7,286046998.1,N
1571730875.5,286047000.7,N
1571730895.3,286047002.4,N
1571730915.2,286047001.6,N
1571730935.0,286046999.7,N
1571730935.9,286046999.7,N
1571730955.7,286047000.5,N
1571730975.6,286047002.7,N
1571730995.4,286047002.4,N
1571731015.3,286047001.7,N
1571731035.1,286047002.4,N
1571731036.0,286047002.4,N
1571731055.8,286046998.7,N
1571731075.7,286047002.8,N
1571731095.5,286047000.4,N
1571731115.3,286047000.8,N
1571731135.2,286047001.1,N
1571731155.0,286047000.0,N
1571731155.9,286047000.0,N
1571731175.8,286047001.3,N
1571731195.6,286047004.2,N
